Weather History for Pueblo, CO

Change the Weather History Date:

Tuesday, April 23, 2013

  Actual Average Record
Temperature  
Mean Temperature 25 °F 53 °F  
Max Temperature 30 °F 70 °F 90 °F (1989)
Min Temperature 20 °F 36 °F 20 °F (2013)
Degree Days  
Heating Degree Days 40 12  
Month to date heating degree days 477 359  
Since 1 July heating degree days 5449 5364  
Cooling Degree Days 0 0  
Month to date cooling degree days 0 0  
Year to date cooling degree days 0 0  
Moisture  
Dew Point 20 °F    
Average Humidity 83    
Maximum Humidity 96    
Minimum Humidity 69    
Precipitation  
Precipitation 0.12 in 0.06 in 1.63 in (1905)
Month to date precipitation 0.30 1.02  
Year to date precipitation 1.20 2.60  
Snow  
Snow 1.60 in 0.10 in 1.60 in (2013)
Month to date snowfall 3.5 3.2  
Since 1 July snowfall 23.9 30.7  
Snow Depth T in    
Sea Level Pressure  
Sea Level Pressure 30.25 in    
Wind  
Wind Speed 6 mph (ESE)    
Max Wind Speed 15 mph    
Max Gust Speed 17 mph    
Visibility 6 miles    
Events Fog , Snow    
T = Trace of Precipitation, MM = Missing Value Source: NWS Daily Summary

Daily Weather History Graph

Daily Weather History Graph

Search for Another Location

Airport:

Trip Planner

Search our weather history database for the weather conditions in past years. The results will help you decide how hot, cold, wet, or windy it might be!

Date:

Astronomy

Apr. 23, 2013 Rise Set
Actual Time 6:10 AM MDT 7:42 PM MDT
Civil Twilight 5:43 AM MDT 8:10 PM MDT
Nautical Twilight 5:09 AM MDT 8:43 PM MDT
Astronomical Twilight 4:34 AM MDT 9:19 PM MDT
Moon 5:41 PM MDT (4/23) 4:38 AM MDT (4/23)
Length of Visible Light 14h 27m
Length of Day
13h 31m
Waxing Gibbous, 94% of the Moon is Illuminated
Apr 23
Waxing Gibbous
Apr 25
Full
May 2
Last Quarter
May 9
New
May 17
First Quarter

Hourly Weather History & Observations

Time (MDT) Temp. Windchill Dew Point Humidity Pressure Visibility Wind Dir Wind Speed Gust Speed Precip Events Conditions
12:53 AM 28.0 °F 20.8 °F 19.9 °F 72% 30.20 in 10.0 mi ENE 6.9 mph - N/A   Overcast
1:53 AM 27.0 °F 19.5 °F 19.9 °F 75% 30.22 in 10.0 mi ESE 6.9 mph - N/A   Overcast
2:53 AM 26.1 °F 19.4 °F 19.9 °F 78% 30.21 in 10.0 mi SE 5.8 mph - N/A   Overcast
3:44 AM 26.6 °F 20.0 °F 19.4 °F 74% 30.19 in 10.0 mi SSE 5.8 mph - N/A   Overcast
3:53 AM 26.6 °F 21.2 °F 19.4 °F 74% 30.20 in 10.0 mi SE 4.6 mph - N/A   Overcast
4:50 AM 26.6 °F - 19.4 °F 74% 30.21 in 7.0 mi Calm Calm - N/A   Overcast
4:53 AM 27.0 °F - 19.9 °F 75% 30.25 in 6.0 mi Calm Calm - N/A   Haze
5:04 AM 26.6 °F - 19.4 °F 74% 30.21 in 7.0 mi Calm Calm - N/A   Overcast
5:53 AM 26.1 °F 18.4 °F 19.0 °F 75% 30.26 in 10.0 mi ESE 6.9 mph - N/A   Overcast
6:51 AM 24.8 °F 14.6 °F 19.4 °F 80% 30.21 in 1.8 mi ESE 10.4 mph - 0.00 in Snow Light Snow
6:53 AM 25.0 °F 14.8 °F 19.9 °F 81% 30.28 in 1.2 mi East 10.4 mph - 0.00 in Snow Light Snow
7:02 AM 24.8 °F 15.3 °F 19.4 °F 80% 30.22 in 0.8 mi East 9.2 mph - 0.01 in Snow Light Snow
7:14 AM 24.8 °F 14.0 °F 21.2 °F 86% 30.22 in 0.5 mi East 11.5 mph - 0.01 in Fog , Snow Snow
7:53 AM 24.1 °F 14.4 °F 21.0 °F 88% 30.31 in 0.5 mi East 9.2 mph - 0.03 in Fog , Snow Snow
8:13 AM 24.8 °F 15.3 °F 21.2 °F 86% 30.23 in 1.0 mi East 9.2 mph - 0.02 in Snow Light Snow
8:18 AM 24.8 °F 14.6 °F 21.2 °F 86% 30.22 in 0.8 mi East 10.4 mph - 0.02 in Snow Light Snow
8:53 AM 23.0 °F 11.7 °F 19.9 °F 88% 30.33 in 0.5 mi ENE 11.5 mph - 0.04 in Fog , Snow Snow
9:18 AM 24.8 °F 14.6 °F 21.2 °F 86% 30.23 in 1.0 mi East 10.4 mph - 0.00 in Snow Light Snow
9:32 AM 24.8 °F 14.6 °F 21.2 °F 86% 30.23 in 0.5 mi East 10.4 mph - 0.00 in Fog , Snow Snow
9:40 AM 24.8 °F 16.1 °F 21.2 °F 86% 30.23 in 0.5 mi East 8.1 mph - 0.01 in Fog , Snow Snow
9:53 AM 23.0 °F 11.1 °F 21.0 °F 92% 30.33 in 0.5 mi East 12.7 mph - 0.01 in Fog , Snow Snow
10:53 AM 23.0 °F 12.4 °F 19.9 °F 88% 30.35 in 0.8 mi East 10.4 mph - 0.02 in Snow Light Snow
11:02 AM 23.0 °F 11.1 °F 19.4 °F 86% 30.24 in 0.5 mi East 12.7 mph - 0.01 in Fog , Snow Snow
11:19 AM 23.0 °F 11.7 °F 19.4 °F 86% 30.24 in 1.5 mi East 11.5 mph - 0.01 in Snow Light Snow
11:22 AM 24.8 °F 14.6 °F 19.4 °F 80% 30.25 in 2.0 mi East 10.4 mph - 0.01 in Snow Light Snow
11:44 AM 24.8 °F 15.3 °F 19.4 °F 80% 30.24 in 2.0 mi East 9.2 mph - 0.01 in Snow Light Snow
11:53 AM 23.0 °F 11.7 °F 19.9 °F 88% 30.33 in 2.0 mi East 11.5 mph - 0.01 in Snow Light Snow
12:05 PM 24.8 °F 15.3 °F 19.4 °F 80% 30.23 in 1.5 mi East 9.2 mph - 0.00 in Snow Light Snow
12:16 PM 23.0 °F 13.1 °F 19.4 °F 86% 30.22 in 1.8 mi East 9.2 mph - 0.00 in Snow Light Snow
12:18 PM 24.8 °F 14.6 °F 19.4 °F 80% 30.22 in 2.0 mi East 10.4 mph - 0.00 in Snow Light Snow
12:49 PM 24.8 °F 17.9 °F 19.4 °F 80% 30.22 in 4.0 mi ESE 5.8 mph - 0.01 in   Overcast
12:50 PM 24.1 °F 17.0 °F 19.9 °F 84% 30.32 in 4.0 mi ESE 5.8 mph - 0.01 in   Overcast
1:41 PM 26.6 °F 21.2 °F 21.2 °F 80% 30.20 in 10.0 mi SSE 4.6 mph - N/A   Mostly Cloudy
1:53 PM 26.1 °F 19.4 °F 21.0 °F 81% 30.28 in 10.0 mi SE 5.8 mph - N/A   Mostly Cloudy
2:02 PM 26.6 °F 21.2 °F 21.2 °F 80% 30.19 in 10.0 mi South 4.6 mph - N/A   Overcast
2:12 PM 26.6 °F 20.0 °F 21.2 °F 80% 30.19 in 10.0 mi SSE 5.8 mph - N/A   Overcast
2:53 PM 26.1 °F 18.4 °F 21.0 °F 81% 30.28 in 10.0 mi South 6.9 mph - N/A   Overcast
3:10 PM 26.6 °F 20.0 °F 21.2 °F 80% 30.18 in 10.0 mi Variable 5.8 mph - N/A   Mostly Cloudy
3:21 PM 26.6 °F 18.2 °F 21.2 °F 80% 30.18 in 10.0 mi South 8.1 mph - N/A   Mostly Cloudy
3:53 PM 27.0 °F 18.7 °F 21.0 °F 78% 30.27 in 10.0 mi South 8.1 mph - N/A   Mostly Cloudy
4:04 PM 26.6 °F 18.2 °F 21.2 °F 80% 30.17 in 10.0 mi South 8.1 mph - N/A   Scattered Clouds
4:14 PM 26.6 °F 18.2 °F 21.2 °F 80% 30.17 in 10.0 mi South 8.1 mph - N/A   Mostly Cloudy
4:23 PM 26.6 °F 20.0 °F 21.2 °F 80% 30.17 in 10.0 mi South 5.8 mph - N/A   Mostly Cloudy
4:53 PM 27.0 °F 20.5 °F 21.0 °F 78% 30.26 in 10.0 mi South 5.8 mph - N/A   Partly Cloudy
5:53 PM 28.0 °F 21.7 °F 19.0 °F 69% 30.27 in 10.0 mi South 5.8 mph - N/A   Overcast
6:53 PM 28.9 °F 25.2 °F 19.0 °F 67% 30.27 in 10.0 mi SW 3.5 mph - N/A   Scattered Clouds
7:53 PM 28.0 °F 21.7 °F 19.0 °F 69% 30.30 in 10.0 mi SSW 5.8 mph - N/A   Clear
8:53 PM 27.0 °F 20.5 °F 19.9 °F 75% 30.34 in 10.0 mi West 5.8 mph - N/A   Clear
9:53 PM 26.1 °F 21.9 °F 19.9 °F 78% 30.35 in 10.0 mi WSW 3.5 mph - N/A   Clear
10:53 PM 25.0 °F - 19.9 °F 81% 30.35 in 10.0 mi Calm Calm - N/A   Clear
11:53 PM 23.0 °F - 19.0 °F 85% 30.35 in 10.0 mi Calm Calm - N/A   Clear